Temperature
5 5 5 5 5 5 5 5 5 5 5 5 5 5 5 5 5 5 5 5 5 5 5 5 5 5 5 4 4 4 4 4 4 3 4 4 4 4 4 4 4 4 4
4 4 4 4 5 5 5 5 5 5 5 5 5 5 5 5 5 5 5 5 5 5 5 5 5 4 4 4 4 4 4 3 3 3 3 3 4 4 3 3 4 3 3
4 4 4 4 4 4 4 4 4 4 4 4 4 4 4 4 4 4 4 4 4 4 4 4 4 4 4 4 3 3 3 3 3 3 3 3 3 3 3 3 3 3 3
3 3 3 3 3 3 3 4 4 4 4 4 4 4 4 4 4 4 4 4 4 3 3 3 3 3 3 3 3 3 2 3 3 2 2 2 3 3 3 3 3 3 3
2 3 3 3 3 3 3 3 3 3 3 3 3 3 3 3 3 3 3 3 3 3 3 3 3 3 2 2 2 2 2 2 2 2 2 2 2 2 2 2 2 2 2
2 2 2 2 2 2 2 2 2 2 2 3 3 2 2 3 3 3 3 2 2 2 2 2 2 2 2 2 2 2 2 2 2 2 2 1 2 2 2 1 1 1 1
1 1 1 1 2 2 2 2 2 2 2 2 2 2 2 2 2 2 2 2 2 2 2 2 2 1 1 1 1 1 1 1 1 1 1 1 1 1 1 1 1 1 1
0 1 1 1 1 1 1 1 1 1 1 1 1 1 1 1 1 2 2 2 1 1 1 1 1 1 1 1 1 1 1 1 1 1 1 1 1 1 0 0 0 0 0
-0 0 0 1 1 1 1 1 1 1 1 1 1 1 1 1 1 1 1 1 1 1 1 1 1 1 1 0 0 1 1 1 1 0 0 0 0 0 0 0 -0 -0 -0
-0 -0 0 0 0 0 0 0 0 0 0 0 0 0 0 0 0 0 0 0 0 0 1 1 0 0 0 0 0 0 0 0 0 0 0 0 0 -0 -0 -0 -0 -1 -1
-1 -1 -0 -0 -0 -0 -0 -0 -0 -0 -0 -0 -0 -0 -0 -0 -0 -0 -0 -0 -0 -0 -0 0 0 -0 -0 -0 -0 -0 -0 -0 -0 -0 -0 -0 -0 -0 -1 -1 -1 -1 -1
-1 -1 -1 -1 -1 -1 -1 -1 -1 -1 -1 -1 -1 -1 -1 -1 -1 -1 -1 -1 -1 -1 -0 -0 -0 -1 -1 -1 -1 -1 -1 -1 -1 -1 -1 -1 -1 -1 -1 -1 -1 -1 -2
-2 -2 -2 -1 -1 -1 -1 -1 -1 -1 -1 -1 -1 -1 -1 -1 -1 -1 -1 -1 -1 -1 -1 -1 -1 -1 -1 -1 -1 -1 -1 -1 -1 -1 -1 -1 -1 -1 -1 -2 -2 -2 -2
-2 -2 -2 -2 -2 -2 -2 -2 -2 -2 -2 -2 -2 -2 -2 -1 -1 -1 -1 -1 -1 -1 -1 -1 -1 -2 -2 -2 -2 -2 -2 -2 -2 -2 -2 -2 -2 -2 -2 -2 -2 -2 -2
-3 -3 -3 -2 -2 -2 -2 -2 -2 -2 -2 -2 -2 -2 -2 -2 -2 -2 -2 -2 -2 -2 -2 -2 -2 -2 -2 -2 -2 -3 -3 -3 -3 -2 -3 -2 -2 -3 -3 -3 -3 -3 -3
-3 -3 -3 -3 -3 -3 -3 -3 -3 -3 -3 -3 -3 -2 -2 -2 -2 -2 -2 -2 -2 -2 -2 -2 -3 -3 -3 -3 -3 -3 -3 -3 -3 -3 -3 -3 -3 -3 -3 -3 -4 -4 -3
-3 -3 -3 -3 -3 -3 -4 -4 -3 -3 -3 -3 -3 -3 -3 -3 -3 -3 -3 -3 -3 -3 -3 -3 -3 -3 -4 -4 -4 -4 -4 -4 -4 -4 -4 -4 -4 -4 -4 -4 -4 -4 -4
-3 -3 -4 -4 -4 -4 -4 -4 -4 -4 -4 -3 -3 -3 -3 -3 -3 -3 -3 -3 -3 -3 -3 -4 -4 -4 -4 -4 -4 -4 -4 -4 -4 -4 -4 -4 -5 -4 -5 -5 -4 -4 -4
-4 -4 -4 -4 -4 -4 -4 -4 -4 -4 -4 -4 -4 -4 -4 -4 -4 -4 -3 -4 -4 -4 -4 -4 -4 -4 -4 -4 -5 -5 -5 -5 -5 -5 -5 -5 -5 -5 -5 -5 -5 -5 -5
-4 -4 -4 -4 -5 -5 -5 -5 -5 -5 -5 -4 -4 -4 -4 -4 -4 -4 -4 -4 -4 -4 -4 -4 -4 -4 -5 -5 -5 -5 -5 -5 -5 -5 -5 -5 -5 -5 -5 -5 -5 -5 -5
-4 -5 -5 -5 -5 -5 -5 -5 -5 -5 -5 -5 -4 -4 -4 -4 -4 -4 -4 -4 -4 -4 -4 -5 -5 -5 -5 -5 -5 -5 -5 -5 -6 -6 -6 -5 -6 -6 -5 -5 -5 -5 -5
-5 -5 -5 -5 -5 -5 -5 -5 -5 -5 -5 -5 -5 -5 -5 -5 -5 -5 -5 -5 -5 -5 -5 -5 -5 -5 -5 -5 -5 -5 -6 -6 -6 -6 -6 -6 -6 -6 -6 -5 -5 -5 -5
-5 -6 -6 -6 -6 -6 -6 -6 -5 -5 -5 -5 -5 -5 -5 -5 -5 -5 -5 -5 -5 -5 -5 -5 -5 -5 -5 -5 -5 -6 -6 -6 -6 -6 -6 -6 -6 -6 -6 -6 -5 -5 -5
-6 -6 -6 -6 -6 -6 -6 -6 -6 -6 -5 -5 -5 -5 -5 -5 -5 -5 -5 -5 -5 -5 -5 -5 -5 -5 -5 -5 -6 -6 -6 -6 -6 -6 -6 -6 -6 -6 -6 -6 -6 -6 -5
-6 -6 -6 -6 -6 -6 -6 -6 -6 -6 -6 -6 -5 -5 -5 -5 -5 -5 -5 -5 -5 -5 -5 -6 -6 -6 -6 -6 -6 -6 -6 -6 -6 -6 -6 -6 -6 -6 -6 -6 -6 -6 -6
-6 -6 -6 -6 -6 -6 -6 -6 -6 -6 -6 -6 -6 -6 -6 -6 -6 -6 -6 -6 -6 -6 -6 -6 -6 -6 -6 -6 -6 -6 -6 -6 -6 -6 -6 -6 -6 -6 -6 -6 -6 -6 -6
Wind_Speed
1 1 1 2 2 3 3 2 3 3 3 3 3 3 2 2 2 2 2 2 2 1 1 2 2 2 1 1 1 1 1 1 2 2 1 1 1 2 3 4 4 4 5
1 1 1 2 2 2 3 3 2 3 3 3 3 3 3 2 2 2 2 2 2 1 1 1 1 1 2 1 1 1 1 1 2 3 2 1 2 2 2 3 3 4 5
1 1 2 2 2 2 2 2 3 3 2 2 3 3 3 2 2 2 2 2 2 2 1 1 1 1 1 1 1 1 2 1 1 2 2 1 1 1 2 3 3 3 4
1 2 2 2 2 2 2 2 2 3 3 2 2 2 2 2 2 2 2 2 2 1 1 2 1 1 2 2 2 2 2 2 1 1 2 1 1 1 1 2 3 3 3
1 2 1 1 2 2 3 2 2 2 2 2 2 2 1 2 2 2 2 2 2 2 1 2 2 2 2 2 2 2 2 2 2 2 2 2 1 1 2 2 3 3 3
1 1 1 2 2 2 2 2 2 2 2 2 2 2 2 2 2 2 2 2 2 2 2 2 2 2 3 3 3 3 3 3 3 3 3 3 3 2 2 2 2 3 3
0 0 0 1 1 1 1 2 2 2 2 2 2 2 2 2 2 2 2 2 2 2 3 2 2 2 2 2 3 4 4 4 4 3 4 4 3 3 3 3 3 3 4
0 0 1 1 1 1 2 2 1 1 2 2 1 2 2 2 2 2 2 1 2 3 3 3 3 3 3 3 3 3 3 4 4 4 4 4 4 4 5 4 4 3 3
1 1 1 1 1 1 1 1 1 1 1 1 1 2 2 2 2 2 2 2 2 2 3 3 3 3 4 4 3 3 3 3 4 5 5 5 5 4 3 1 1 1 3
1 1 1 1 2 2 2 1 1 1 2 2 1 2 2 2 3 2 2 1 2 2 2 3 4 4 4 4 3 3 4 4 3 2 3 4 3 4 4 4 4 2 2
1 1 1 1 2 2 2 2 2 2 2 2 2 2 2 2 3 3 2 2 2 2 2 2 3 4 5 5 4 4 5 4 2 2 2 2 2 2 3 3 4 3 3
1 1 2 2 2 2 2 1 2 2 2 2 2 2 2 2 3 3 4 3 2 2 3 3 3 4 5 5 4 4 4 3 1 1 2 2 2 3 3 3 4 5 6
1 2 2 2 2 2 2 2 2 2 2 2 2 2 2 2 2 4 4 4 3 2 2 3 4 4 4 3 4 3 2 2 2 2 2 3 3 3 2 2 3 3 3
2 2 2 2 2 2 2 2 2 3 3 3 3 3 2 2 2 2 2 2 3 3 3 3 3 3 2 2 2 2 2 2 2 3 3 3 2 2 2 1 2 2 1
2 2 2 2 3 2 2 2 3 3 3 3 3 3 3 3 4 4 3 2 2 2 1 1 1 1 1 1 1 2 2 2 2 2 2 2 2 2 2 1 1 2 2
2 2 2 2 2 2 2 2 3 4 5 5 5 5 4 5 6 5 5 4 3 2 1 1 2 2 2 2 2 2 2 2 2 3 3 3 3 3 3 2 2 2 3
3 3 2 2 2 2 2 3 3 3 4 5 6 6 6 6 6 6 5 4 4 3 2 2 2 2 2 2 2 2 2 2 2 3 3 3 3 3 3 3 3 3 3
3 3 3 3 3 3 3 3 3 3 3 3 4 6 6 6 6 5 4 3 3 3 3 3 3 3 3 3 3 3 2 2 2 3 3 3 3 3 3 4 4 4 4
3 3 3 3 3 3 3 3 3 3 3 3 2 3 4 4 4 4 3 3 3 3 3 3 3 3 3 3 3 3 3 3 3 3 3 4 4 3 4 4 4 5 4
3 4 3 3 3 3 3 3 3 3 4 3 4 3 2 2 2 2 2 3 3 3 3 3 3 3 3 3 3 3 3 3 3 3 3 4 4 4 4 4 4 4 4
2 3 3 3 3 3 3 3 3 3 4 4 4 4 4 3 3 3 3 3 3 3 3 3 3 3 3 3 3 3 3 3 3 3 3 3 3 3 4 4 4 4 3
2 2 2 2 3 3 3 3 3 3 4 4 3 4 5 3 3 3 3 3 3 3 3 3 3 3 3 3 3 3 3 3 3 3 3 3 3 3 3 4 3 3 3
2 2 2 2 2 3 3 2 2 3 3 3 3 3 3 3 3 3 3 3 2 2 2 2 3 3 3 3 3 4 4 4 4 3 3 3 3 3 3 3 3 3 3
2 2 2 2 2 2 2 2 2 2 3 3 3 3 3 3 3 3 3 2 2 2 2 2 3 3 4 3 4 5 5 5 5 4 4 4 4 3 3 3 3 3 3
2 2 2 2 2 2 2 2 2 2 2 2 2 2 2 2 3 3 2 2 2 2 2 3 3 3 4 5 5 5 6 6 6 5 4 4 4 4 3 3 3 3 2
2 2 2 2 2 2 2 2 2 2 2 2 2 2 2 2 2 2 2 2 2 2 3 3 4 4 5 5 6 6 7 7 7 6 4 3 3 3 3 3 3 3 2
Wind_Direction
186 210 162 142 141 142 144 150 144 134 133 139 137 137 138 135 130 130 142 137 151 157 147 181 196 196 200 212 205 224 245 211 249 285 302 289 237 271 297 293 292 288 292
170 164 156 131 124 135 140 137 132 134 135 135 139 144 147 141 142 144 151 146 157 167 171 169 208 187 199 210 197 219 248 241 228 268 292 280 264 254 278 286 294 289 287
83 119 124 130 133 131 132 133 142 136 133 130 134 146 154 156 157 156 152 159 164 175 188 189 212 180 212 211 198 218 241 265 246 246 271 274 278 284 296 298 295 292 296
88 104 114 127 141 137 124 123 137 138 145 140 145 153 168 161 152 154 158 166 171 177 189 193 194 198 219 221 219 226 228 230 236 245 261 265 282 289 275 289 303 305 301
86 102 108 111 111 127 125 123 120 133 147 143 141 145 167 164 165 151 164 170 178 191 200 196 200 201 216 223 229 220 213 214 219 237 261 277 291 293 275 276 294 308 298
79 94 96 106 109 122 130 127 128 138 146 140 148 164 184 186 169 161 163 180 189 204 219 235 227 215 224 231 240 231 216 211 217 227 245 250 258 258 267 289 301 310 293
57 72 85 99 106 115 144 140 155 163 150 150 167 176 187 187 183 185 187 186 196 213 217 224 242 236 228 233 247 246 241 242 231 221 233 239 238 238 234 249 260 267 274
302 218 215 162 152 156 163 171 185 167 163 171 183 192 203 205 197 206 208 197 201 219 219 216 218 226 231 229 233 236 240 244 244 232 231 238 235 225 219 232 248 271 296
259 233 217 198 197 188 185 193 197 185 184 192 184 198 210 224 214 219 206 197 210 228 230 222 221 226 240 235 229 238 250 261 271 259 257 259 267 264 250 216 256 289 295
268 266 246 216 215 208 211 220 219 209 205 194 214 220 216 230 231 228 204 197 221 243 245 235 235 243 245 236 225 228 241 254 264 286 274 267 259 251 245 215 209 239 283
271 280 277 243 225 212 210 219 217 206 204 199 214 229 229 235 239 230 224 212 219 234 241 242 247 254 251 254 248 237 251 255 244 250 256 256 255 247 248 241 221 220 238
238 255 262 253 244 228 205 225 228 206 210 216 219 233 240 243 249 247 241 245 245 236 245 242 244 254 258 259 254 261 263 265 244 254 264 262 261 262 261 259 252 244 240
226 244 255 262 251 232 221 225 229 219 217 226 222 231 242 246 255 257 249 250 256 255 261 268 268 264 261 260 262 259 253 246 243 253 261 270 269 262 268 278 276 267 268
241 256 256 251 246 241 239 233 227 227 223 224 227 233 242 246 247 251 247 250 262 264 265 270 272 265 273 284 283 268 256 246 242 248 259 264 272 270 261 270 283 284 283
248 254 255 247 241 236 231 232 229 232 227 225 230 230 230 245 250 255 247 234 231 239 254 257 251 250 255 259 261 257 252 262 265 260 258 267 275 278 281 277 275 279 261
249 253 251 242 247 235 226 254 253 241 246 247 246 246 251 256 259 254 255 256 244 228 215 223 231 234 241 248 254 261 254 249 251 254 255 256 261 263 273 279 270 259 261
243 249 250 247 250 247 236 235 249 263 247 247 250 255 255 257 255 252 247 242 236 220 224 231 237 240 245 251 254 260 261 257 256 253 255 259 264 265 269 267 260 264 268
255 254 253 244 244 244 243 243 239 239 252 261 258 254 254 256 252 245 236 227 234 236 234 235 239 239 241 244 248 254 260 265 266 259 257 257 255 258 263 264 258 259 267
258 252 250 245 245 245 245 246 245 243 245 253 261 260 256 254 246 239 227 228 229 235 238 239 240 241 244 246 248 252 253 255 263 269 263 261 258 255 257 261 259 261 261
266 260 254 246 244 244 244 243 244 240 241 243 246 247 246 251 242 240 239 234 230 233 234 237 239 239 241 243 248 249 251 254 257 258 263 264 259 255 258 258 256 256 254
269 262 257 252 245 245 244 243 241 236 236 240 245 245 239 232 233 234 236 238 234 236 237 238 239 239 240 239 242 247 248 251 256 260 262 264 266 267 264 258 258 255 256
267 259 252 242 244 246 253 250 245 240 235 238 245 249 246 241 237 238 242 246 244 244 238 236 240 240 238 236 240 243 247 250 251 255 262 267 267 267 268 258 255 257 251
270 265 259 251 248 253 259 253 248 247 245 242 242 243 238 234 238 242 245 249 251 245 242 236 237 244 251 253 251 243 241 244 247 249 255 261 269 266 264 265 258 247 245
271 266 262 259 255 248 247 251 253 254 251 249 247 241 236 235 237 243 247 249 244 244 243 244 241 238 245 259 262 258 256 260 263 259 249 246 254 263 256 257 257 250 240
267 268 268 262 258 256 256 255 253 256 259 259 254 251 242 239 241 242 242 241 241 245 252 254 253 248 249 258 263 261 261 262 265 268 256 245 242 246 245 246 250 248 237
275 276 277 271 264 258 253 252 252 252 256 261 259 255 249 244 243 242 238 238 245 253 259 260 256 257 260 262 259 258 261 262 263 264 260 245 235 241 240 238 232 228 220
Height
1462 1463 1464 1466 1467 1469 1470 1471 1472 1474 1475 1476 1478 1479 1481 1482 1483 1484 1486 1486 1488 1489 1489 1490 1491 1492 1493 1494 1495 1496 1497 1497 1497 1497 1497 1497 1497 1497 1496 1496 1495 1495 1494
1460 1461 1462 1463 1464 1466 1467 1468 1469 1471 1472 1474 1475 1476 1477 1479 1480 1481 1482 1483 1484 1485 1485 1486 1487 1488 1489 1490 1491 1492 1492 1493 1494 1493 1493 1493 1493 1493 1493 1493 1492 1491 1490
1457 1458 1459 1460 1462 1463 1464 1466 1467 1468 1469 1471 1472 1473 1475 1476 1477 1478 1479 1480 1481 1481 1483 1483 1484 1484 1485 1486 1487 1488 1489 1490 1490 1490 1490 1490 1490 1490 1490 1489 1489 1488 1487
1455 1456 1457 1458 1459 1460 1462 1463 1464 1465 1466 1468 1469 1471 1472 1473 1474 1475 1476 1477 1478 1479 1480 1480 1481 1481 1482 1483 1483 1484 1485 1486 1486 1486 1486 1486 1486 1486 1486 1485 1484 1484 1483
1453 1454 1455 1456 1457 1458 1459 1460 1461 1463 1464 1465 1466 1468 1469 1470 1471 1472 1473 1473 1474 1476 1477 1477 1478 1478 1479 1480 1480 1481 1481 1481 1482 1482 1482 1482 1482 1482 1482 1481 1481 1480 1479
1451 1451 1452 1453 1454 1455 1456 1457 1458 1460 1461 1462 1463 1464 1466 1466 1468 1468 1469 1470 1471 1472 1473 1474 1474 1475 1475 1476 1476 1477 1478 1478 1478 1478 1478 1478 1478 1479 1479 1478 1477 1476 1474
1450 1450 1451 1451 1452 1453 1454 1455 1456 1457 1458 1459 1460 1462 1463 1463 1464 1465 1466 1467 1468 1469 1469 1470 1471 1472 1472 1472 1472 1473 1473 1474 1475 1475 1474 1474 1475 1475 1475 1474 1473 1472 1471
1448 1448 1449 1449 1450 1451 1452 1453 1453 1454 1455 1456 1457 1459 1460 1460 1461 1462 1463 1463 1464 1465 1466 1466 1467 1468 1468 1468 1468 1469 1469 1469 1470 1470 1471 1471 1471 1472 1471 1471 1470 1469 1468
1446 1446 1447 1447 1448 1448 1449 1450 1451 1452 1452 1453 1454 1456 1456 1457 1458 1459 1460 1460 1460 1461 1462 1463 1463 1464 1464 1465 1465 1465 1465 1465 1466 1466 1467 1467 1467 1467 1467 1467 1466 1465 1463
1444 1444 1444 1445 1445 1446 1446 1447 1448 1449 1449 1451 1452 1453 1453 1454 1455 1456 1456 1457 1457 1457 1458 1458 1459 1460 1460 1461 1461 1461 1460 1461 1462 1462 1462 1462 1463 1463 1463 1462 1462 1462 1460
1442 1442 1442 1442 1442 1443 1443 1444 1445 1446 1446 1447 1448 1449 1450 1451 1452 1453 1453 1453 1453 1453 1454 1454 1455 1456 1456 1457 1457 1457 1457 1458 1458 1458 1458 1458 1458 1458 1458 1458 1458 1457 1457
1439 1439 1439 1439 1440 1440 1440 1441 1442 1442 1443 1444 1445 1445 1446 1447 1448 1449 1449 1450 1450 1450 1450 1450 1451 1452 1452 1453 1453 1453 1454 1454 1454 1454 1453 1453 1453 1453 1454 1453 1453 1453 1453
1435 1435 1435 1436 1436 1436 1437 1437 1438 1439 1439 1440 1441 1441 1442 1443 1444 1445 1445 1446 1446 1446 1446 1446 1447 1447 1448 1448 1449 1449 1449 1449 1449 1449 1449 1450 1450 1450 1449 1449 1449 1449 1449
1432 1432 1432 1432 1432 1432 1433 1433 1434 1435 1435 1436 1437 1437 1438 1439 1440 1440 1441 1441 1442 1442 1442 1442 1443 1443 1444 1444 1445 1445 1445 1446 1446 1446 1446 1446 1446 1446 1445 1445 1445 1444 1444
1428 1428 1428 1428 1428 1428 1429 1429 1430 1431 1432 1433 1433 1434 1434 1434 1436 1437 1437 1437 1438 1438 1438 1438 1439 1439 1440 1440 1440 1441 1441 1442 1442 1442 1442 1442 1441 1441 1441 1441 1441 1441 1440
1424 1424 1424 1424 1424 1424 1425 1425 1426 1427 1428 1429 1430 1431 1431 1432 1432 1433 1433 1434 1434 1434 1435 1434 1435 1435 1435 1436 1436 1437 1437 1437 1438 1438 1437 1437 1437 1437 1437 1437 1437 1437 1436
1420 1420 1420 1420 1420 1420 1421 1421 1422 1423 1424 1425 1425 1426 1427 1427 1428 1428 1429 1429 1430 1430 1430 1430 1431 1431 1431 1432 1432 1433 1433 1434 1434 1434 1434 1434 1434 1433 1433 1433 1433 1433 1432
1417 1417 1417 1416 1417 1417 1417 1418 1418 1418 1419 1419 1421 1422 1422 1423 1424 1424 1424 1425 1425 1425 1426 1426 1426 1427 1427 1428 1428 1429 1429 1429 1430 1430 1430 1430 1430 1430 1429 1429 1429 1429 1429
1413 1413 1413 1413 1413 1413 1413 1414 1414 1415 1415 1416 1416 1417 1418 1419 1419 1420 1420 1420 1420 1420 1421 1422 1422 1423 1423 1424 1424 1424 1425 1425 1426 1426 1426 1426 1426 1426 1425 1425 1425 1425 1425
1409 1409 1409 1409 1409 1409 1409 1410 1410 1411 1411 1412 1412 1413 1413 1414 1414 1415 1415 1416 1416 1416 1417 1417 1418 1418 1419 1419 1420 1420 1421 1421 1421 1421 1421 1421 1422 1422 1422 1421 1421 1421 1421
1406 1406 1406 1406 1406 1406 1406 1406 1406 1407 1407 1408 1408 1409 1410 1410 1410 1411 1411 1412 1412 1412 1413 1413 1414 1414 1414 1415 1415 1416 1416 1416 1417 1417 1417 1417 1417 1418 1418 1418 1418 1418 1418
1403 1402 1402 1402 1402 1402 1402 1403 1403 1403 1403 1404 1404 1405 1406 1407 1407 1407 1407 1408 1408 1409 1409 1409 1409 1410 1410 1410 1411 1411 1412 1412 1412 1413 1413 1413 1413 1414 1414 1414 1414 1414 1414
1400 1399 1399 1400 1400 1400 1400 1399 1399 1400 1400 1400 1401 1402 1402 1403 1403 1403 1404 1404 1404 1405 1405 1405 1405 1406 1406 1406 1407 1407 1407 1408 1408 1409 1409 1409 1409 1409 1410 1409 1410 1410 1410
1397 1397 1397 1397 1397 1397 1397 1397 1397 1397 1397 1397 1398 1398 1398 1399 1399 1400 1400 1400 1401 1401 1401 1401 1401 1401 1402 1402 1402 1403 1403 1404 1404 1405 1405 1405 1405 1405 1406 1406 1406 1407 1407
1395 1395 1395 1395 1394 1394 1394 1394 1394 1394 1394 1394 1395 1395 1395 1396 1396 1396 1396 1397 1397 1397 1397 1397 1397 1397 1398 1398 1398 1398 1399 1400 1400 1401 1401 1401 1402 1402 1402 1403 1403 1404 1404
1393 1393 1392 1392 1392 1392 1392 1392 1392 1392 1392 1392 1392 1392 1392 1393 1393 1393 1393 1393 1393 1393 1393 1394 1394 1394 1394 1394 1394 1394 1395 1395 1396 1397 1397 1398 1398 1398 1399 1400 1400 1401 1402